This is the latest recevied weather packets stored in our database for station/object KN6WGU. If no packets are shown the sender has not sent any weather packets the latest 1 day(s).
| Time | Temp. | Humidity | Pressure | Rain* | Wind** | Luminosity | Snow |
|---|---|---|---|---|---|---|---|
| 1836274778 | 18.89° C | 83% | 1013.7 hPa | 0 mm | 0.45 m/s, 108° | 0 W/m² | - |
| 1836274476 | 18.33° C | 86% | 1013.6 hPa | 0 mm | 0 m/s | 0 W/m² | - |
| 1836274330 | 18.89° C | 82% | 1013.7 hPa | 0 mm | 0 m/s | 0 W/m² | - |
| 1836274175 | 18.33° C | 88% | 1013.6 hPa | 0 mm | 0 m/s | 0 W/m² | - |
| 1836273874 | 18.33° C | 89% | 1013.5 hPa | 0 mm | 0 m/s | 0 W/m² | - |
| 1778040331 | 7.78° C | 99% | 1002.5 hPa | 0 mm | 0 m/s | 0 W/m² | - |
| 1778040027 | 8.33° C | 99% | 1002.1 hPa | 0 mm | 0 m/s | 0 W/m² | - |
| 1778039724 | 8.33° C | 99% | 1002.5 hPa | 1.78 mm | 0 m/s | 0 W/m² | - |
| 1778039421 | 8.89° C | 99% | 1002.6 hPa | 1.78 mm | 0 m/s | 0 W/m² | - |
| 1778039119 | 8.89° C | 99% | 1002.7 hPa | 1.78 mm | 0 m/s | 0 W/m² | - |
| 1778038815 | 8.89° C | 99% | 1002.6 hPa | 3.05 mm | 0 m/s | 0 W/m² | - |
| 1778038513 | 8.89° C | 99% | 1002.7 hPa | 1.27 mm | 0 m/s | 0 W/m² | - |
| 1778038210 | 8.89° C | 99% | 1002.7 hPa | 1.78 mm | 0 m/s | 0 W/m² | - |
| 1778037907 | 8.89° C | 99% | 1002.9 hPa | 3.05 mm | 0 m/s | 0 W/m² | - |
| 1778037603 | 9.44° C | 99% | 1002.8 hPa | 1.27 mm | 0 m/s | 0 W/m² | - |
| 1778037301 | 9.44° C | 99% | 1002.8 hPa | 1.78 mm | 0 m/s | 0 W/m² | - |
| 1778036998 | 9.44° C | 99% | 1002.7 hPa | 3.05 mm | 0 m/s | 0 W/m² | - |
| 1778036696 | 9.44° C | 99% | 1002.7 hPa | 3.05 mm | 0 m/s | 0 W/m² | - |
| 1778036393 | 9.44° C | 99% | 1002.8 hPa | 3.05 mm | 0 m/s | 0 W/m² | - |
| 1778036089 | 9.44° C | 99% | 1003.1 hPa | 3.05 mm | 0 m/s | 0 W/m² | - |
| 1778035786 | 9.44° C | 99% | 1002.8 hPa | 3.05 mm | 0 m/s | 0 W/m² | - |
| 1778035483 | 9.44° C | 99% | 1002.7 hPa | 3.05 mm | 0 m/s | 0 W/m² | - |
| 1778035178 | 9.44° C | 99% | 1002.8 hPa | 3.05 mm | 0 m/s | 0 W/m² | - |
| 1778034876 | 9.44° C | 99% | 1002.9 hPa | 4.83 mm | 0 m/s | 0 W/m² | - |
| 1778034572 | 9.44° C | 99% | 1002.8 hPa | 6.6 mm | 0 m/s | 0 W/m² | - |
* Rain latest hour (hover to see other rain measurements)
** Current wind speed in m/s (hover to see current wind gust speed)